This demonstration page uses our WeatherBlox Daily Observations layout. Learn more.

Left ArrowRight Arrow

39.51506, -84.39828

Hourly Observations for April 30, 2020

Temp ( °F °C ) Dew Point ( °F °C ) Humidity (%) Winds ( mph kmh ) Pressure ( in mb ) Visibility ( mi km ) Precip ( " mm )
12:15 am 00:15 undefined 51 10.7 50 10 95 95 SSW 10 17 29.68 1005 N/A 0 0
12:35 am 00:35 Cloudy 51 10.7 50 10.1 96 96 S 8 13 29.67 1005 N/A 0 0
12:55 am 00:55 undefined 51 10.8 50 10.2 96 96 S 8 13 29.67 1005 N/A 0 0
1:15 am 01:15 undefined 52 11 50 10.2 95 95 SSW 9 15 29.66 1004 N/A 0 0
1:35 am 01:35 undefined 52 11 51 10.3 95 95 S 7 11 29.66 1004 N/A 0 0
1:55 am 01:55 undefined 52 11 50 10.2 95 95 S 9 15 29.65 1004 N/A 0 0
2:15 am 02:15 undefined 51 10.6 50 9.9 95 95 S 7 11 29.65 1004 N/A 0 0
2:35 am 02:35 undefined 51 10.3 49 9.6 95 95 S 6 9 29.63 1003 N/A 0 0
2:55 am 02:55 Cloudy 51 10.5 50 9.8 95 95 SSW 8 13 29.62 1003 N/A 0 0
3:15 am 03:15 undefined 50 10.1 49 9.6 97 97 SSW 8 13 29.61 1003 N/A 0 0
3:35 am 03:35 undefined 51 10.5 49 9.6 94 94 SSW 14 22 29.61 1003 N/A 0 0
3:55 am 03:55 Cloudy 51 10.4 49 9.4 94 94 SSW 12 19 29.61 1003 N/A 0 0
4:15 am 04:15 undefined 51 10.3 49 9.2 93 93 SSW 12 19 29.62 1003 N/A 0 0
4:35 am 04:35 Cloudy 51 10.3 48 9 92 92 SSW 10 17 29.61 1003 N/A 0 0
4:55 am 04:55 Cloudy 50 10.2 48 8.7 91 91 SSW 10 17 29.61 1003 N/A 0 0
5:15 am 05:15 undefined 49 9.7 47 8.5 92 92 SW 10 17 29.62 1003 N/A 0 0
5:35 am 05:35 Cloudy 49 9.7 48 8.7 94 94 SW 8 13 29.62 1003 N/A 0 0
5:55 am 05:55 undefined 49 9.2 47 8.5 95 95 SW 14 22 29.62 1003 N/A 0 0
6:15 am 06:15 undefined 45 7.4 44 6.7 95 95 W 12 19 29.64 1004 N/A 0 0
6:35 am 06:35 Cloudy 45 7.1 43 6.1 93 93 W 8 13 29.65 1004 N/A 0 0
6:55 am 06:55 undefined 45 7.1 42 5.7 91 91 WSW 8 13 29.66 1004 N/A 0 0
7:15 am 07:15 Cloudy 45 7 42 5.4 90 90 WSW 7 11 29.66 1004 N/A 0 0
7:35 am 07:35 Cloudy 45 7 42 5.6 91 91 WSW 8 13 29.67 1005 N/A 0 0
7:55 am 07:55 undefined 45 7.1 42 5.3 88 88 WSW 9 15 29.67 1005 N/A 0 0
8:15 am 08:15 undefined 45 7.3 42 5.5 88 88 WSW 7 11 29.67 1005 N/A 0 0
8:35 am 08:35 undefined 46 7.6 43 5.9 89 89 WSW 10 17 29.67 1005 N/A 0 0
8:55 am 08:55 Cloudy 47 8.2 42 5.7 84 84 WSW 15 24 29.67 1005 N/A 0 0
9:15 am 09:15 Cloudy 47 8.6 42 5.8 83 83 SW 13 20 29.67 1005 N/A 0 0
9:35 am 09:35 Cloudy 47 8.6 42 5.6 82 82 SW 10 17 29.67 1005 N/A 0 0
9:55 am 09:55 Cloudy 47 8.1 42 5.3 83 83 SW 15 24 29.67 1005 N/A 0 0
10:15 am 10:15 Cloudy 47 8.5 43 6.1 85 85 SW 13 20 29.67 1005 N/A 0 0
10:35 am 10:35 undefined 47 8.5 43 6.2 86 86 SW 17 28 29.67 1005 N/A 0 0
10:55 am 10:55 undefined 48 8.8 45 7 89 89 WSW 12 19 29.68 1005 N/A 0 0
11:15 am 11:15 Cloudy 47 8.1 44 6.5 90 90 WSW 8 13 29.68 1005 N/A 0 0
11:35 am 11:35 undefined 47 8.3 44 6.9 91 91 WSW 7 11 29.69 1006 N/A 0 0
11:55 am 11:55 undefined 47 8.4 44 6.4 87 87 WSW 8 13 29.7 1006 N/A 0 0
12:15 pm 12:15 Cloudy 47 8.4 42 5.4 82 82 W 12 19 29.71 1006 N/A 0 0
12:35 pm 12:35 Cloudy 48 8.8 41 5.2 78 78 WSW 12 19 29.71 1006 N/A 0 0
12:55 pm 12:55 Cloudy 48 8.9 41 4.9 76 76 W 13 20 29.72 1006 N/A 0 0
1:15 pm 13:15 Cloudy 48 9 40 4.4 73 73 W 15 24 29.72 1006 N/A 0 0
1:35 pm 13:35 Cloudy 50 10.1 42 5.5 73 73 W 13 20 29.72 1006 N/A 0 0
1:55 pm 13:55 Cloudy 51 10.3 41 4.8 69 69 W 17 28 29.72 1006 N/A 0 0
2:15 pm 14:15 Cloudy 50 10 40 4.7 70 70 WSW 18 30 29.73 1007 N/A 0 0
2:35 pm 14:35 Cloudy 49 9.7 40 4.5 70 70 WSW 16 26 29.73 1007 N/A 0 0
2:55 pm 14:55 Cloudy 50 9.8 40 4.6 70 70 W 14 22 29.73 1007 N/A 0 0
3:15 pm 15:15 Cloudy 49 9.6 41 4.9 73 73 WSW 18 30 29.74 1007 N/A 0 0
3:35 pm 15:35 Cloudy 49 9.5 41 4.8 73 73 W 14 22 29.75 1007 N/A 0 0
3:55 pm 15:55 Cloudy 49 9.7 41 4.8 72 72 W 18 30 29.75 1007 N/A 0 0
4:15 pm 16:15 Cloudy 50 9.9 41 5.1 72 72 W 18 30 29.75 1007 N/A 0 0
4:35 pm 16:35 Cloudy 48 9.1 41 5 76 76 W 16 26 29.75 1007 N/A 0 0
4:55 pm 16:55 Cloudy 48 8.8 41 5.2 78 78 W 20 31 29.77 1008 N/A 0 0
5:15 pm 17:15 Cloudy 47 8.6 41 5 78 78 W 15 24 29.77 1008 N/A 0 0
5:35 pm 17:35 Cloudy 47 8.2 41 4.8 79 79 WNW 12 19 29.78 1009 N/A 0 0
5:55 pm 17:55 Cloudy 46 8 41 4.8 80 80 W 16 26 29.79 1009 N/A 0 0
6:15 pm 18:15 Cloudy 47 8.1 41 5 81 81 W 9 15 29.79 1009 N/A 0 0
6:35 pm 18:35 Cloudy 46 7.9 41 4.8 81 81 W 10 17 29.8 1009 N/A 0 0
6:55 pm 18:55 Cloudy 47 8.2 41 4.9 80 80 W 12 19 29.8 1009 N/A 0 0
7:15 pm 19:15 Cloudy 47 8.1 41 4.8 80 80 W 14 22 29.8 1009 N/A 0 0
7:35 pm 19:35 Cloudy 47 8.2 41 5.2 82 82 W 6 9 29.81 1010 N/A 0 0
7:55 pm 19:55 Cloudy 47 8.2 41 5.2 82 82 W 15 24 29.81 1010 N/A 0 0
8:15 pm 20:15 Cloudy 46 8 41 5 82 82 W 13 20 29.82 1010 N/A 0 0
8:35 pm 20:35 Cloudy 47 8.1 41 5.2 82 82 W 10 17 29.82 1010 N/A 0 0
8:55 pm 20:55 Cloudy 47 8.1 41 5.2 82 82 W 10 17 29.83 1010 N/A 0 0
9:15 pm 21:15 Cloudy 46 8 42 5.5 84 84 W 8 13 29.83 1010 N/A 0 0
9:35 pm 21:35 Cloudy 46 7.9 42 5.8 87 87 W 8 13 29.83 1010 N/A 0 0
9:55 pm 21:55 Cloudy 47 8.1 42 5.6 84 84 W 6 9 29.84 1011 N/A 0 0
10:15 pm 22:15 Cloudy 47 8.3 42 5.6 83 83 W 5 7 29.84 1011 N/A 0 0
10:35 pm 22:35 Cloudy 47 8.4 42 5.7 83 83 WSW 6 9 29.84 1011 N/A 0 0
10:55 pm 22:55 Cloudy 47 8.4 42 5.7 83 83 W 7 11 29.84 1011 N/A 0 0
11:15 pm 23:15 Cloudy 47 8.4 42 5.8 84 84 WSW 8 13 29.83 1010 N/A 0 0
11:35 pm 23:35 Cloudy 47 8.5 42 5.6 82 82 WSW 7 11 29.83 1010 N/A 0 0
11:55 pm 23:55 Cloudy 47 8.5 42 5.5 82 82 WSW 7 11 29.83 1010 N/A 0 0

Powered by AerisWeather